Panama City, FL

1:32 AM CDT on April 23, 2018 (GMT -0500)
Northwest Florida Beaches International

Weather History for KECP - June, 2013

Change the Weather History Date:

Thursday, June 13, 2013

  Actual Average Record
Temperature  
Mean Temperature 84 °F -  
Max Temperature 92 °F - 95 °F (2016)
Min Temperature 75 °F - 69 °F (2014)
Degree Days  
Heating Degree Days 0    
Cooling Degree Days 19    
Growing Degree Days 33 (Base 50)    
Moisture  
Dew Point 75 °F    
Average Humidity 78    
Maximum Humidity 97    
Minimum Humidity 59    
Precipitation  
Precipitation 0.00 in - 1.46 in (2017)
Month to date precipitation  
Year to date precipitation  
Sea Level Pressure  
Sea Level Pressure 29.99 in    
Wind  
Wind Speed 3 mph (SW)    
Max Wind Speed 22 mph    
Max Gust Speed 40 mph    
Visibility 7 miles    
Events      
T = Trace of Precipitation, MM = Missing Value Source: NWS Daily Summary

Daily Weather History Graph

Daily Weather History Graph

Search for Another Location

Airport or City:

Astronomy

Jun. 13, 2013 Rise Set
Actual Time 6:40 AM EDT 8:46 PM EDT
Civil Twilight 6:13 AM EDT 9:13 PM EDT
Nautical Twilight 5:39 AM EDT 9:47 PM EDT
Astronomical Twilight 5:03 AM EDT 10:23 PM EDT
Moon 11:01 AM EDT (6/13) No Moon Set
Length of Visible Light 15h 00m
Length of Day
14h 05m
Waxing Crescent, 21% of the Moon is Illuminated
Jun 13
Waxing Crescent
Jun 16
First Quarter
Jun 23
Full
Jun 30
Last Quarter
Jul 8
New

Hourly Weather History & Observations

Time (EDT) Temp. Heat Index Dew Point Humidity Pressure Visibility Wind Dir Wind Speed Gust Speed Precip Events Conditions
12:53 AM 79.0 °F - 77.0 °F 94% 30.05 in 6.0 mi Calm Calm - N/A   Clear
1:53 AM 78.1 °F - 77.0 °F 96% 30.04 in 5.0 mi Calm Calm - N/A   Clear
2:53 AM 78.1 °F - 75.9 °F 93% 30.03 in 6.0 mi Calm Calm - N/A   Clear
3:53 AM 78.1 °F - 75.9 °F 93% 30.02 in 6.0 mi Calm Calm - N/A   Clear
4:53 AM 77.0 °F - 75.0 °F 94% 30.01 in 4.0 mi Calm Calm - N/A   Clear
5:24 AM 75.2 °F - 75.2 °F 100% 29.98 in 1.8 mi Calm Calm - N/A   Clear
5:38 AM 75.2 °F - 73.4 °F 94% 29.98 in 2.0 mi Calm Calm - N/A   Partly Cloudy
5:53 AM 75.0 °F - 73.9 °F 96% 30.02 in 3.0 mi Calm Calm - N/A   Partly Cloudy
6:00 AM 75.2 °F - 73.4 °F 94% 29.99 in 2.0 mi Calm Calm - N/A   Partly Cloudy
6:14 AM 75.2 °F - 73.4 °F 94% 29.99 in 5.0 mi Calm Calm - N/A   Clear
6:30 AM 75.2 °F - 73.4 °F 94% 30.00 in 2.5 mi Calm Calm - N/A   Scattered Clouds
6:33 AM 75.2 °F - 73.4 °F 94% 30.00 in 1.0 mi Calm Calm - N/A   Mist
6:36 AM 75.2 °F - 73.4 °F 94% 30.00 in 0.8 mi Calm Calm - N/A   Mist
6:53 AM 75.0 °F - 73.9 °F 96% 30.03 in 1.0 mi Calm Calm - N/A   Mist
7:53 AM 78.1 °F - 75.9 °F 93% 30.04 in 1.0 mi West 3.5 mph - N/A   Clear
8:00 AM 78.8 °F - 75.2 °F 89% 30.01 in 10.0 mi Calm Calm - N/A   Clear
8:53 AM 81.0 °F 87.3 °F 75.9 °F 85% 30.05 in 10.0 mi West 6.9 mph - N/A   Clear
9:53 AM 84.0 °F 91.2 °F 73.9 °F 72% 30.05 in 10.0 mi WSW 6.9 mph - N/A   Clear
10:53 AM 87.1 °F 95.4 °F 73.9 °F 65% 30.04 in 10.0 mi WSW 5.8 mph - N/A   Clear
11:53 AM 90.0 °F 99.0 °F 73.9 °F 59% 30.04 in 10.0 mi WNW 3.5 mph - N/A   Clear
12:53 PM 90.0 °F 101.3 °F 75.9 °F 63% 30.02 in 10.0 mi SSW 5.8 mph - N/A   Scattered Clouds
1:53 PM 91.0 °F 104.2 °F 77.0 °F 63% 30.00 in 10.0 mi South 13.8 mph 28.8 mph N/A   Partly Cloudy
2:53 PM 90.0 °F 99.0 °F 73.9 °F 59% 29.98 in 10.0 mi SSW 11.5 mph - N/A   Partly Cloudy
3:53 PM 87.1 °F 97.3 °F 75.9 °F 69% 29.96 in 10.0 mi SSW 12.7 mph - N/A   Clear
4:53 PM 90.0 °F 99.0 °F 73.9 °F 59% 29.94 in 10.0 mi SSW 12.7 mph - N/A   Clear
5:53 PM 88.0 °F 97.5 °F 75.0 °F 65% 29.93 in 10.0 mi SW 13.8 mph - N/A   Clear
6:53 PM 87.1 °F 96.3 °F 75.0 °F 67% 29.91 in 10.0 mi SW 11.5 mph - N/A   Clear
7:53 PM 84.9 °F 91.4 °F 73.0 °F 67% 29.90 in 10.0 mi SW 12.7 mph 20.7 mph N/A   Clear
8:53 PM 82.9 °F 89.4 °F 73.9 °F 74% 29.91 in 10.0 mi SW 8.1 mph - N/A   Clear
9:53 PM 82.0 °F 89.4 °F 75.9 °F 82% 29.92 in 10.0 mi SW 8.1 mph - N/A   Clear
10:53 PM 81.0 °F 86.7 °F 75.0 °F 82% 29.92 in 10.0 mi SSW 4.6 mph - N/A   Clear
11:53 PM 80.1 °F 85.1 °F 75.0 °F 85% 29.93 in 9.0 mi South 5.8 mph - N/A   Mostly Cloudy